Regional Weather Roundup
Issued by NWS Grand Forks, ND

Home | Current Version | Previous Version | Graphics & Text | Print | Product List | Glossary On
Versions: 1 2 3 4 5 6 7 8 9 10 11 12 13 14 15 16 17 18 19 20 21 22 23 24 25 26 27 28 29 30 31 32 33 34 35 36 37 38 39 40 41 42 43 44 45 46 47 48 49 50
000
ASUS43 KFGF 191031
RWRFGF
PRAIRIE TO PINES  WEATHER ROUNDUP
NATIONAL WEATHER SERVICE EASTERN NORTH DAKOTA/GRAND FORKS ND
400 AM CST FRI DEC 19 2014

 **SATELLITE DATA USED TO AUGMENT SKY COVER AT AUTOMATED STATIONS**
 *****  WEATHER ACROSS EASTERN NORTH DAKOTA  *****

CITY           SKY/WX    TMP DP  RH WIND       PRES   REMARKS
GRAND FORKS    CLOUDY    21  18  88 S12       30.10F WCI   9
GRAND FRKS AFB FRZ DRZL  21  21 100 S10       30.08F FOG     WCI  10
DEVILS LAKE    CLOUDY    25  18  74 S10       29.98F WCI  15
FARGO          CLOUDY    23  20  88 SE14      30.12F FOG     WCI  11
WAHPETON ARPT  CLOUDY    23  21  93 S8        30.14F WCI  14
$$

 ***** WEATHER ACROSS CENTRAL AND WESTERN NORTH DAKOTA  *****

CITY           SKY/WX    TMP DP  RH WIND       PRES   REMARKS
BISMARCK       MOCLDY    19  15  84 E5        29.98S WCI  12
MINOT          FOG       27  25  92 SE5       29.93F VSB 3/4 WCI  22
JAMESTOWN      CLOUDY    26  24  92 S12       30.02F FOG     WCI  16
MINOT AFB      CLOUDY    25  25 100 SE3       29.93F FOG
GARRISON         N/A     23  21  92 SE3       29.93S
WILLISTON      FOG       24  22  91 SW3       29.93R VSB 1/2
DICKINSON      CLOUDY    30  24  78 W8        29.89S WCI  22
HETTINGER      MOCLDY    28  23  81 W8        29.94F WCI  20
$$

 *****  OTHER AIRPORT OBSERVATIONS IN OUR AREA  *****

CITY           SKY/WX    TMP DP  RH WIND       PRES   REMARKS
WALHALLA         N/A     19  19 100 S12       30.06F FOG     WCI   7
GRAFTON AIRPOR NOT AVBL
VALLEY CITY AR FOG       25  25 100 S7        30.05F VSB 1   WCI  17
CANDO          CLOUDY    23  23 100 SE8       29.99F FOG     WCI  14
CAVALIER APRT  CLOUDY    21  19  93 S8        30.08F FOG     WCI  12
GWINNER        CLOUDY    30  30 100 MISG      30.10S
SHEYENNE NWR     N/A     24  23  95 S7        29.95S WCI  16
ROLLA          CLOUDY    23  23 100 S5        29.97S FOG     WCI  17
 ***** THE ABOVE OBSERVATIONS ARE NON NWS ARE NOT QUALITY
       CONTROLLED AND MAY MIS-REPORT RAIN FOR SNOW...
$$

  *****  WEATHER ACROSS NORTHERN MINNESOTA  *****

CITY           SKY/WX    TMP DP  RH WIND       PRES   REMARKS
FLAG ISLAND    CLOUDY    19  16  86 S15       30.14S WCI   5
WARROAD        CLOUDY    19  16  86 S10       30.14S WCI   8
ROSEAU         CLOUDY    21  16  79 S12       30.12F WCI   9
HALLOCK        CLOUDY    21  19  93 S13       30.09F WCI   9
THF RVR FALLS  CLOUDY    21  18  86 S13       30.11F WCI   9
BAUDETTE       CLOUDY    20  16  84 S5        30.15F WCI  13
WASKISH        CLOUDY    19  18  93 CALM      30.15F
CROOKSTON      FAIR      21  19  93 S13       30.13F WCI   9
STEPHEN NDAWN    N/A     21  19  93 S14         N/A  WCI   8
GREENBUSH NDAW   N/A     21  19  93 S10         N/A  WCI  10
$$
  *****  WEATHER ACROSS CENTRAL AND WEST MINNESOTA  *****

CITY           SKY/WX    TMP DP  RH WIND       PRES   REMARKS
FOSSTON        FLURRIES  19  18  93 SE8       30.12F WCI   9
BEMIDJI        LGT SNOW  19  15  87 SE8       30.14F WCI   8
PARK RAPIDS    LGT SNOW  19  15  84 SE10      30.14F FOG     WCI   7
ELBOW LAKE     CLOUDY    21  21  97 SE10      30.14F FOG     WCI  10
WADENA         LGT SNOW  19  18  93 NW7       30.15F WCI  10
DETROIT LAKES  CLOUDY    21  19  93 S10       30.13F WCI  10
MOORHEAD       CLOUDY    23  23 100 S15       30.13F FOG     WCI  10
FERGUS FALLS   CLOUDY    21  19  93 SE12      30.17F WCI   9
MORRIS MN      CLOUDY    23  21  93 SE10      30.15F FOG     WCI  12
STAPLES        CLOUDY    18  16  93 SE7       30.17F WCI   8
$$
  *****  WEATHER ELSEWHERE ACROSS MINNESOTA  *****

CITY           SKY/WX    TMP DP  RH WIND       PRES   REMARKS
DULUTH         FLURRIES  20  17  88 SW8       30.20F WCI  10
INTRNTL FALLS  CLOUDY    21  18  88 S5        30.18S WCI  15
ELY            CLOUDY    21  18  86 S6        30.19F WCI  14
CLOQUET        CLOUDY    19  18  93 SW6       30.22S WCI  11
WHEATON        MOCLDY    21  19  93 SE10      30.16F FOG     WCI  10
BRAINERD       LGT SNOW  19  16  88 SE7       30.19F FOG     WCI  10
HIBBING        CLOUDY    20  16  84 SW7       30.19F WCI  11
ALEXANDRIA     CLOUDY    21  19  92 SE9       30.16F FOG     WCI  11
SAINT CLOUD    LGT SNOW  22  17  81 SE6       30.22F WCI  14
MINNEAPOLIS    CLOUDY    21  16  81 SE5       30.26F WCI  15
$$

  *****  WEATHER ACROSS SOUTH DAKOTA  *****

CITY           SKY/WX    TMP DP  RH WIND       PRES   REMARKS
SIOUX FALLS    CLOUDY    28  25  88 S8        30.15F WCI  20
BROOKINGS      NOT AVBL
WATERTOWN      CLOUDY    26  24  92 S10       30.09F FOG     WCI  16
HURON          CLOUDY    28  25  88 S13       30.10F WCI  17
SISSETON         N/A     24  24 100 S10       30.12F WCI  14
ABERDEEN       CLOUDY    28  24  85 S12       30.09S WCI  18
MITCHELL       CLOUDY    29  26  89 S8        30.12F WCI  21
PIERRE         FOG       12   8  84 E3        30.03F VSB 1/4
MOBRIDGE       MOCLDY    22  20  92 S9        29.97F FOG     WCI  12
RAPID CITY     PTCLDY    28  18  66 NW7       29.98F WCI  21
$$

  *****  SOME WEATHER IN NEARBY STATES *****

CITY           SKY/WX    TMP DP  RH WIND       PRES   REMARKS
GLASGOW MT     PTCLDY    18  15  88 S3        29.91S
GREAT FALLS MT CLEAR     31  25  78 SW12      29.89R WCI  22
CHEYENNE WY    CLEAR     22  11  62 SW9       30.03S WCI  12
SCOTTSBLUFF NE CLEAR      8   5  87 N6        30.05F WCI  -2
OMAHA NE       CLOUDY    31  28  89 S7        30.24F WCI  24
DES MOINES IA  FLURRIES  29  24  82 SE3       30.26F
DAVENPORT IA   FAIR      14  10  84 N5        30.30F WCI   6
CHICAGO IL     CLOUDY    28  23  81 NW6       30.26S WCI  22
EAU CLAIRE WI  CLOUDY    24  18  77 W5        30.26F WCI  18
LA CROSSE WI   CLOUDY    25  17  72 SW3       30.30S
$$

  *****  SOME NATIONAL WEATHER *****

CITY           SKY/WX    TMP DP  RH WIND       PRES   REMARKS
LA GUARDIA NY  MOCLDY    37  25  61 NW15      29.97S
RALEIGH NC     MOCLDY    42  27  55 CALM      30.11S
ATLANTA GA     PTCLDY    38  32  79 NW8       30.11F
NEW ORLEANS LA CLOUDY    57  50  77 E10       30.05F
OKLAHOMA CITY  FOG       40  37  89 N8        30.17S VSB 3/4
ALBUQUERQUE NM CLEAR     33  26  75 N7        30.17R
SALT LAKE CITY PTCLDY    32  27  81 S9        30.18S WCI  24
LOS ANGELES CA PTCLDY    51  47  86 CALM      30.21S
BOISE ID       CLOUDY    42  34  73 E9        30.06S
SEATTLE WA     LGT RAIN  48  45  89 S9        29.81R
$$

*** WEATHER ACROSS MANITOBA...SASKATCHEWAN AND ONTARIO ***
                ***ONTARIO***

CITY           SKY/WX    TMP DP  RH WIND       PRES   REMARKS
GERALDTON      CLEAR    -13 -18  77 W1        30.25F
THUNDER BAY    CLEAR      0  -4  85 W5        30.32S WCI -10
SIOUX LOOKOUT  FLURRIES  14  10  85 CALM      30.19S
TORONTO        CLOUDY    25  19  80 NW16      30.13S WCI  12
BIG TROUT LK   CLEAR     -2  -4  92 SW6       30.17S WCI -14
PICKLE LAKE    NOT AVBL
DRYDEN         CLOUDY    19  18  93 S7        30.16S WCI  10
KENORA         CLOUDY    18  14  86 S8        30.14F WCI   7
$$
                *** MANITOBA***

CITY           SKY/WX    TMP DP  RH WIND       PRES   REMARKS
BRANDON        CLOUDY    19  18  93 SE5       30.00S WCI  13
DAUPHIN        CLOUDY    18  16  93 SE6       30.01F WCI   9
ISLAND LAKE    CLEAR      3   0  85 SE6       30.10S WCI  -8
PILOT MOUND      N/A     21  21 100 S5          N/A  WCI  15
THE PAS        CLOUDY    16  14  93 SE8       29.97  WCI   5
THOMPSON       FLURRIES   9   5  85 VRB2      29.98
WINNIPEG       FRZ DRZL  19  18  93 S13       30.10  FOG     WCI   7
LYNN LAKE      FLURRIES  14  14 100 W6        29.89S WCI   5
CHURCHILL      FLURRIES   7   3  85 SW3       29.96F
GILLAM         LGT SNOW   9   5  85 SW7       30.02S WCI  -3
$$
                ***SASKATCHEWAN***

CITY           SKY/WX    TMP DP  RH WIND       PRES   REMARKS
ESTEVAN        LGT SNOW  23  23 100 W5        29.92S FOG     WCI  17
KINDERSLEY     FOG        9   5  85 E5        29.88S VSB 1/8 WCI   0
LLOYDMINSTER   FOG        9   7  92 S2        29.87S VSB 5/8
PRINCE ALBERT  FLURRIES  18  18 100 NW6       29.93R WCI   9
REGINA         FOG       23  23 100 W5        29.90S VSB 3/8 WCI  17
YORKTON        CLOUDY    21  19  93 SE5       29.92S FOG     WCI  15
N. BATTLEFORD  FOG       16  14  93 VRB2      29.92F VSB 1/4
LA RONGE       CLOUDY    16  16 100 W3        29.93R
SASKATOON      FOG       18  16  93 NW6       29.95S VSB 1   WCI   9
SWIFT CURRENT  PTCLDY    14  12  92 SW10      29.85S WCI   1
$$
NOTE: THESE ARE AUTOMATED STATIONS WITH LIMITED QUALITY CONTROL
      "FAIR" INDICATES FEW OR NO CLOUDS BELOW 12,000 FEET WITH NO
      SIGNIFICANT WEATHER AND/OR OBSTRUCTIONS TO VISIBILITY.
      SKY/WX - SKY CONDITION AND SIGNIFICANT WEATHER.
      TMP - AIR TEMPERATURE.    DP   - DEWPOINT TEMPERATURE.
      RH  - RELATIVE HUMIDITY.  PRES - PRESSURE.
      HX  - HEAT INDEX.         WCI  - WIND CHILL INDEX.
$



USA.gov is the U.S. government's official web portal to all federal, state and local government web resources and services.